SL-3 R/B (13154 NORAD) Tracking and Keplerian Element Data

This shows tracking and keplerian element data for the satellite.

Feedback or suggestion? Click here.




ElementValue
Catalog13154
NameSL-3 R/B
Epoch Orbit15414
Epoch Day15.84561824
Epoch Year2022
RAAN139.8989
Inclination81.1843
Eccentricity0.0038999
Argument of Perigee239.3602
Mean Anonmoly120.377
Mean Motion14.9909348
Decay Rate8.6E-06
L11 13154U 82039B 22015.84561824 .00000860 00000+0 68002-4 0 9997
L22 13154 81.1843 139.8989 0038999 239.3602 120.3770 14.99093480154143

Live tracking and technical data element details for SL-3 R/B (NORAD 13154). SL-3 R/B can be tracked NOW for your location showing map with azimuth and elevation plus other details from your city location.

Track the satellite on the map from your city or location and see movement details for azimuth, elevation, latitude, longitude, range, height, and movement on the map or in text.







IsCatalogInMostPopularTable: catalog: 13154, numindb: 284
Update: records affected: 1



GetName: 13154 SL-3 R/B

Hit Count: updated at: Mon, 17 Jan 2022 01:33:18 GMT